Location: Newark
(54.4000°N, 32.4500°E)
Time: 20:23:05
(UTC+00:00)

Envisat - Pass Details

Date: 21 January 2020
Orbit: 764 x 766 km, 98.1° (Epoch: 23 February)

Event Time Altitude Azimuth Distance (km) Brightness Sun altitude
Rises 03:37:14 0° 22° (NNE) 3,248 6.4 -19.6°
Reaches altitude 10° 03:39:57 10° 35° (NE) 2,316 5.8 -19.2°
Maximum altitude 03:44:09 25° 91° (E) 1,505 5.4 -18.6°
Drops below altitude 10° 03:48:19 10° 146° (SSE) 2,300 6.1 -18.0°
Sets 03:51:00 0° 160° (SSE) 3,221 6.7 -17.6°
